Dewpoint
74 73 75 74 74 74 71 68 56 60 58 53 53 54 52 60 62 58 58 61 58 61 61 61 61 60 60 58 59 62 64 59 60 54 52 63 70 70 72 71 72 72 72 73 74 74 74 74 75 76 74 73 74 74 75 75 75 76 76 77 77 77 77 77 77 77 77 77 77 77 77 77 77 76 76 76 76 76 75 75 75 75 75 74 74 74 74 74 74 74 73 74 74 74 74 74 74
73 74 74 73 73 72 65 69 60 54 56 51 50 54 54 58 58 58 57 59 58 60 61 61 62 63 63 63 63 62 62 65 66 65 67 69 71 71 71 71 72 72 72 73 74 74 75 75 76 76 75 75 75 75 75 75 76 76 77 77 77 77 77 77 77 77 77 77 77 77 77 77 77 76 76 76 75 75 75 75 75 75 75 74 74 74 74 74 74 74 73 74 74 75 74 74 74
74 74 73 73 72 70 68 67 55 50 47 45 48 53 56 55 55 57 57 58 59 61 62 62 62 62 61 61 60 61 58 66 66 66 67 70 68 70 72 72 72 72 73 73 73 73 74 75 75 76 75 75 76 76 75 75 76 77 77 77 77 77 77 77 77 77 77 77 77 77 77 77 76 76 76 75 75 75 75 75 74 74 74 74 74 74 74 74 74 74 73 73 74 74 75 74 74
74 73 71 71 67 69 63 61 55 51 48 48 49 52 56 55 55 56 58 60 61 61 61 60 59 62 60 61 62 63 63 64 65 66 66 68 69 71 72 72 73 73 73 73 74 74 74 75 75 75 75 76 76 76 75 76 76 77 77 77 77 77 77 77 77 77 77 77 76 76 76 76 76 76 75 75 74 74 75 74 74 74 74 74 74 75 74 74 75 75 75 74 74 75 75 74 74
73 73 72 70 68 62 61 59 56 52 47 49 48 51 56 56 55 57 60 61 61 61 60 61 61 63 63 62 63 60 62 66 66 67 67 70 72 72 72 73 73 73 73 73 74 74 74 76 75 75 75 76 75 75 76 76 77 77 77 77 77 77 77 77 77 77 77 77 76 76 76 76 76 76 75 75 74 74 75 74 74 74 74 75 75 74 74 75 75 75 75 74 74 74 74 74 74
72 71 72 71 64 67 63 56 54 52 52 53 52 53 55 56 55 59 59 59 60 60 60 60 60 61 62 63 65 64 65 63 66 67 68 70 72 72 73 73 73 73 73 74 74 74 74 75 75 75 76 75 75 76 76 76 76 77 77 77 77 77 77 77 77 77 77 77 76 76 76 76 76 75 75 74 75 75 74 74 74 74 74 75 75 74 75 74 75 75 75 74 74 75 74 74 74
70 70 70 69 67 67 58 56 54 54 55 54 53 54 54 55 58 59 58 59 60 60 61 61 62 62 61 63 65 65 68 67 66 67 70 71 72 73 73 73 72 72 73 74 74 74 74 75 75 75 75 75 75 76 76 76 76 77 77 77 77 77 77 77 77 77 76 76 76 76 76 76 75 75 75 75 75 75 74 74 74 74 75 75 75 75 75 75 75 75 75 75 75 74 74 74 74
71 67 66 63 60 61 57 57 56 55 54 55 55 53 54 56 59 58 58 58 58 59 60 61 61 62 63 65 62 66 68 69 69 70 71 72 72 73 73 72 72 72 73 73 74 75 76 76 75 75 75 75 75 76 76 76 76 77 77 77 77 77 77 77 77 77 76 76 76 76 75 76 75 75 75 75 75 75 75 75 74 75 75 75 75 75 75 75 74 75 74 74 74 74 74 73 74
69 65 67 63 59 58 57 56 56 57 56 57 56 57 59 58 59 58 58 59 59 60 60 62 61 59 63 64 64 68 69 70 71 72 71 72 72 72 72 72 72 72 73 73 74 75 75 76 76 76 75 75 76 76 76 76 76 76 77 77 77 77 77 77 77 76 76 76 76 75 75 75 75 75 75 75 75 74 74 75 75 75 75 75 76 75 75 75 75 75 74 74 74 74 74 73 73
66 64 60 60 59 55 52 52 52 52 56 57 56 55 58 58 58 59 58 58 58 60 61 62 63 61 64 63 65 67 68 70 71 70 71 71 72 72 71 72 72 72 72 73 74 75 75 75 75 75 75 75 76 75 76 76 76 76 76 76 76 76 76 76 76 76 76 76 76 76 75 75 75 75 75 75 75 74 74 75 75 74 75 75 76 75 75 75 75 74 74 74 74 75 75 74 73
62 64 65 58 55 52 51 51 52 53 53 53 56 56 58 58 59 58 58 58 60 61 63 63 63 63 63 63 66 70 70 70 69 69 70 71 71 71 71 71 72 72 72 73 74 75 75 75 76 75 75 75 76 76 76 76 76 76 76 76 76 76 76 76 76 76 76 76 76 76 75 75 75 75 75 75 75 75 74 74 74 75 74 75 76 76 75 76 75 74 74 74 74 74 74 74 73
60 59 60 55 54 52 52 52 52 51 51 51 50 56 58 58 59 58 58 58 61 62 62 63 62 63 63 63 65 69 69 69 69 69 70 70 70 71 71 72 72 72 72 73 74 75 75 75 76 75 75 75 76 76 76 76 76 76 76 76 76 76 76 76 76 76 76 76 76 75 75 75 75 75 75 75 75 74 74 74 75 75 75 75 75 76 76 76 75 75 74 75 75 75 74 74 74
61 62 57 54 53 54 55 53 52 54 53 47 49 55 57 58 58 58 58 59 61 61 61 63 64 63 61 63 67 68 68 69 69 69 70 70 70 71 71 71 72 72 72 73 74 74 75 75 75 75 74 75 76 76 76 76 76 76 76 76 76 76 76 76 76 76 76 76 76 76 75 75 75 75 75 75 75 74 74 74 74 75 75 76 75 75 76 75 75 75 74 74 74 74 74 74 74
61 62 59 55 54 53 51 50 50 49 48 43 52 56 57 57 58 59 59 59 60 60 63 64 64 64 63 65 66 66 67 69 69 69 69 69 70 71 71 71 72 72 72 73 74 74 75 75 75 75 75 74 75 75 76 76 76 76 76 76 76 76 76 76 76 76 76 76 76 76 75 75 75 75 75 76 76 75 74 73 74 75 75 76 76 76 76 75 75 74 74 74 74 74 74 74 74
61 63 57 55 52 50 51 50 49 49 47 45 54 56 57 59 59 59 59 59 60 64 65 64 64 59 60 62 63 65 67 69 69 69 69 69 70 71 71 71 72 72 73 73 73 74 75 75 75 75 76 75 75 75 75 75 76 76 76 76 76 76 76 76 76 76 76 76 76 76 76 75 75 76 76 76 76 75 74 73 74 74 75 75 75 75 76 75 75 75 73 73 74 74 74 75 74
62 63 58 54 52 49 50 50 49 44 44 49 55 56 57 59 60 59 60 61 62 64 63 62 65 61 62 62 64 66 68 69 69 68 68 69 70 71 71 71 71 72 73 73 73 74 75 75 75 75 75 75 75 75 75 75 75 76 76 76 76 76 76 76 76 75 75 76 76 76 76 76 75 76 75 76 76 75 74 74 74 74 74 74 75 75 75 75 75 75 74 73 73 74 74 72 73
61 64 60 54 55 52 50 48 39 38 39 52 56 56 56 58 60 61 63 64 62 63 62 64 62 64 63 64 66 68 68 69 68 67 68 69 70 70 71 71 71 72 72 73 73 74 74 75 75 75 75 75 75 75 74 74 75 76 76 76 76 76 76 75 75 75 75 75 75 75 76 77 76 76 76 76 76 77 76 75 75 74 74 75 75 75 75 75 75 75 73 73 74 74 74 73 74
62 61 60 57 58 55 51 47 41 39 51 53 55 56 58 58 59 61 63 62 62 62 62 63 65 65 65 66 67 68 68 67 67 66 67 69 69 69 70 70 70 70 71 72 73 74 74 75 75 75 75 75 75 75 75 75 75 75 75 75 76 76 75 75 76 75 75 76 75 76 76 77 76 75 76 77 77 77 77 76 75 75 75 75 74 75 75 74 74 74 74 74 74 74 73 74 75
62 59 59 58 56 57 52 50 46 38 47 54 55 57 58 58 59 61 60 60 61 60 61 63 64 65 66 67 67 67 67 66 66 66 67 68 69 68 68 69 70 70 71 72 73 74 74 74 75 75 75 75 74 74 75 75 75 75 75 75 76 76 76 76 76 76 75 75 76 75 77 76 76 76 76 77 78 77 77 76 76 75 76 74 75 74 73 73 74 74 74 73 74 75 74 72 74
63 54 55 57 58 54 51 50 50 51 45 54 55 56 57 58 60 61 59 60 60 60 61 62 63 64 65 66 67 67 66 66 66 66 68 68 68 68 68 69 69 70 70 71 72 74 74 74 75 75 75 75 74 74 75 74 74 75 74 75 75 75 76 76 75 76 75 75 76 75 76 76 77 76 77 76 76 77 77 78 77 77 77 78 77 77 77 77 75 77 76 75 76 77 76 75 74
63 60 57 56 55 55 53 52 51 49 49 54 55 56 56 58 59 59 60 59 59 59 61 61 63 64 65 66 66 66 65 65 65 66 68 68 69 69 68 69 69 70 70 72 73 73 74 74 75 75 75 75 74 74 74 74 74 75 74 75 75 75 75 75 75 75 75 75 75 76 75 76 76 75 75 76 76 76 76 76 76 75 76 75 77 76 76 76 77 76 76 77 76 75 76 75 75
55 61 61 59 58 55 52 50 49 47 51 55 55 55 55 59 59 58 59 57 57 59 60 61 64 65 65 66 66 66 65 65 65 66 67 68 68 68 68 68 69 70 71 71 72 73 73 74 74 75 75 75 74 74 74 75 75 74 74 75 75 75 75 75 75 75 75 75 75 75 76 76 75 76 75 75 75 76 75 75 76 75 75 76 76 75 75 75 75 75 75 76 76 75 75 75 75
58 56 59 60 59 56 55 49 47 51 52 53 54 55 58 58 57 58 58 56 57 59 61 61 64 65 66 66 66 66 65 65 64 66 67 68 68 68 68 68 68 69 71 71 72 72 73 74 74 75 75 75 75 75 75 75 75 75 75 75 75 75 75 75 75 75 75 75 75 76 75 75 75 75 75 75 75 75 75 75 75 76 75 75 76 75 74 75 75 75 75 75 74 73 73 74 74
57 54 52 50 52 52 51 48 48 46 52 52 54 57 57 57 56 58 57 56 58 60 61 63 65 66 66 66 66 66 66 65 65 66 68 68 68 68 68 68 68 69 70 70 71 72 73 73 74 75 74 75 75 75 75 75 75 75 75 76 76 75 75 75 75 75 75 75 75 75 77 75 75 74 75 75 75 75 75 75 75 75 75 75 75 75 75 75 75 75 75 74 74 73 73 73 73
56 55 55 53 52 52 51 50 47 46 47 51 53 56 56 57 56 57 57 57 59 61 62 64 65 65 66 66 66 66 66 66 66 67 68 68 69 69 69 69 69 69 69 70 71 72 72 73 74 74 74 74 74 75 74 75 75 75 75 75 75 76 75 75 75 75 75 75 75 76 76 75 75 74 74 74 75 74 74 75 75 75 75 75 75 74 74 74 75 74 74 74 73 74 72 73 73
54 53 53 51 50 49 49 48 47 46 45 45 51 54 56 56 58 56 57 58 60 62 63 64 65 65 65 65 65 66 66 66 66 67 67 68 69 69 69 69 69 69 69 70 71 71 72 73 73 74 74 74 74 74 74 74 75 75 75 75 75 76 75 75 75 75 75 75 75 75 75 75 75 74 74 74 74 74 74 74 75 74 74 74 74 74 74 74 74 73 74 74 74 73 73 73 73
51 52 52 51 51 50 49 48 47 46 45 42 48 51 53 54 55 54 57 59 62 62 63 64 64 64 65 65 65 66 66 66 66 67 67 68 68 68 69 69 69 69 69 70 70 71 72 72 73 73 74 74 74 74 74 74 74 75 75 75 75 75 75 75 75 75 75 75 75 75 75 76 75 74 74 74 74 74 74 74 74 74 73 74 74 74 74 74 73 73 74 74 73 73 73 73 73
49 49 47 46 46 45 45 42 39 38 40 42 46 49 52 51 54 52 57 60 62 62 62 63 64 64 64 65 65 66 66 66 67 67 67 67 68 68 69 69 68 69 69 69 70 71 71 72 72 73 73 74 74 74 74 74 74 74 74 74 74 75 75 75 75 75 75 75 75 75 75 75 76 75 74 74 74 73 73 73 73 73 73 73 74 74 74 75 74 74 74 74 74 74 73 72 72
44 38 29 28 25 23 24 25 27 33 36 42 45 44 47 46 49 53 59 61 61 62 62 63 63 63 64 65 65 66 66 66 67 67 67 67 68 68 68 69 69 68 69 69 70 70 71 72 72 72 73 73 73 73 73 73 73 74 74 74 74 74 74 75 74 74 75 75 75 75 75 75 76 75 75 74 75 73 73 73 73 73 73 73 74 74 74 75 74 74 74 75 73 73 72 72 72
37 33 26 25 24 21 24 28 28 31 37 40 44 41 43 46 47 57 60 60 61 61 62 62 62 63 64 64 64 65 66 66 66 66 67 67 68 68 68 69 69 68 69 69 69 70 71 72 72 72 73 73 73 73 73 73 73 73 73 74 74 74 74 74 74 74 75 75 75 75 75 75 75 75 75 74 74 73 73 73 73 73 73 73 74 74 74 74 74 73 73 73 75 73 72 71 70
36 34 26 27 23 22 25 30 32 27 36 40 42 38 40 44 44 59 60 60 61 61 61 62 62 63 63 64 64 65 65 66 66 66 67 67 67 68 68 68 69 68 69 69 69 70 71 72 72 72 73 72 73 73 73 73 73 73 73 73 73 74 74 74 74 74 74 74 74 74 74 75 75 75 75 75 74 73 73 72 72 73 73 74 74 74 74 74 73 73 74 73 72 72 71 72 70
25 33 26 23 21 24 24 30 28 24 34 37 39 36 35 38 40 59 60 60 60 60 61 62 62 62 63 63 64 64 65 66 66 66 66 67 67 67 68 68 69 68 68 68 69 70 71 71 72 72 72 72 72 73 73 73 73 73 73 73 73 74 74 73 74 74 74 74 74 74 74 75 75 75 75 75 74 73 73 72 72 73 74 74 74 74 74 74 73 73 73 73 72 71 72 69 69
23 33 29 27 21 20 20 23 26 24 37 38 36 34 41 39 43 58 59 60 60 59 60 61 62 62 63 63 63 64 64 65 66 66 66 67 67 68 68 68 68 69 69 69 69 70 70 71 73 72 72 72 72 72 73 73 73 73 73 73 73 73 73 73 73 74 74 73 73 73 74 74 75 75 75 75 74 73 73 72 72 73 74 74 73 73 74 74 73 73 73 74 72 71 70 68 68
34 22 25 25 24 23 22 22 24 26 36 37 37 34 38 46 52 58 59 59 59 59 60 60 61 62 62 63 63 63 64 64 65 65 66 67 67 68 68 70 69 69 69 69 69 69 70 71 72 72 72 72 72 72 73 73 73 73 73 73 74 73 73 73 73 74 73 73 73 73 74 74 75 75 75 75 74 73 73 73 73 73 74 74 73 73 74 73 73 72 72 72 72 71 70 68 67
34 31 26 23 23 19 19 20 22 21 37 34 37 36 36 51 55 58 58 59 58 58 59 60 60 61 62 62 63 63 64 64 64 65 66 67 67 67 68 69 69 69 69 69 70 70 70 71 72 72 72 72 72 72 73 73 73 73 73 73 73 73 73 73 73 73 73 73 73 73 74 74 75 75 75 75 74 74 73 73 73 74 74 74 73 73 73 73 73 72 72 71 72 72 70 69 68
31 28 27 25 23 22 19 19 21 24 22 34 37 37 37 48 54 57 58 59 58 58 59 60 60 61 61 62 62 63 63 64 64 65 66 66 67 67 67 68 69 69 70 70 70 71 71 71 72 72 73 72 72 72 73 73 73 73 72 72 72 72 72 73 73 73 73 73 73 73 74 74 74 75 75 75 74 74 74 73 73 74 74 74 73 72 72 73 73 72 72 71 71 71 71 69 67
27 24 21 19 18 18 19 19 20 20 19 24 31 37 37 46 54 56 58 58 58 58 58 59 60 60 60 61 61 62 63 63 64 65 65 66 66 67 68 68 69 69 70 70 70 70 71 71 72 72 73 73 72 72 72 72 72 72 72 71 71 71 72 72 72 73 72 72 73 73 73 74 74 75 75 75 75 75 74 74 74 74 74 74 73 73 73 73 73 72 72 73 71 69 67 68 68
27 27 24 23 21 21 22 19 21 24 28 30 37 37 38 40 52 55 57 58 57 57 58 59 59 60 60 61 61 62 62 63 64 64 65 65 66 66 67 68 69 68 69 70 70 70 71 71 71 72 72 72 72 72 72 72 72 72 71 71 71 71 71 72 71 72 72 72 73 73 73 74 74 74 75 75 75 75 74 74 74 74 74 74 73 73 73 73 73 72 70 68 67 68 67 66 66
23 24 25 22 23 23 22 18 19 22 22 19 19 23 32 37 49 55 56 57 57 58 58 58 59 59 60 60 61 61 62 63 63 64 64 65 65 66 66 67 68 68 69 69 70 70 70 71 71 72 72 72 72 72 72 72 72 72 72 71 71 71 72 72 72 72 73 72 72 73 73 74 74 74 75 75 75 75 75 74 74 74 74 74 73 73 73 72 72 71 69 68 65 67 67 68 67
21 19 19 21 23 22 21 21 23 23 20 21 33 25 28 48 52 54 56 56 57 58 58 58 59 59 59 60 60 61 61 62 62 63 63 64 65 65 66 66 67 68 68 69 69 70 70 71 71 71 72 72 72 72 73 72 72 72 72 72 72 71 71 72 72 72 72 72 71 72 73 74 74 74 75 75 75 75 75 74 74 74 74 74 74 73 72 72 71 70 68 67 66 63 63 65 69
22 21 21 21 21 21 20 20 18 19 19 25 31 33 36 46 51 53 55 56 56 56 57 57 58 59 60 60 60 61 61 62 62 63 63 64 64 65 65 66 67 67 68 68 69 69 70 70 70 71 71 72 72 73 72 72 72 72 71 71 72 71 72 71 71 71 71 71 71 72 72 74 74 74 75 75 75 75 75 75 74 74 74 74 74 73 72 72 71 70 68 67 65 64 62 64 68
25 24 22 24 23 20 20 20 17 18 18 20 18 22 31 40 48 50 53 54 55 55 55 56 57 58 59 59 59 60 61 62 62 62 63 63 64 64 65 65 66 67 67 68 68 69 69 70 70 71 71 72 72 72 72 72 71 71 70 70 69 69 69 69 69 69 70 70 70 71 73 73 74 74 75 75 75 75 75 75 75 74 74 74 73 73 72 71 70 68 67 66 65 64 64 64 64
24 25 25 24 22 21 20 18 19 21 19 24 29 23 25 36 41 46 52 54 54 55 55 55 56 57 58 58 59 59 60 61 62 62 63 63 63 64 64 65 65 66 67 68 68 69 69 70 70 70 71 71 72 72 72 72 71 71 70 70 69 69 69 69 70 70 70 71 72 72 73 74 74 74 74 75 75 75 75 75 74 74 74 74 74 72 71 70 69 68 67 65 65 67 65 65 64
23 23 25 24 23 21 20 19 18 20 27 27 28 27 21 20 32 43 49 52 53 54 54 54 55 56 57 58 58 59 59 60 61 61 62 62 63 63 63 64 65 65 66 67 67 68 69 70 70 70 70 71 71 72 72 72 71 71 70 70 70 69 69 69 70 70 71 71 71 72 73 74 74 74 74 75 75 75 75 74 74 74 74 73 73 72 71 70 69 68 68 66 66 67 65 65 64
23 20 19 18 18 17 17 17 17 19 22 16 20 28 24 26 28 41 47 50 51 53 53 54 54 55 56 57 57 58 58 59 60 60 61 61 62 62 63 63 64 65 65 66 67 68 69 69 70 70 70 71 71 72 72 72 72 71 70 70 69 70 70 70 70 71 71 72 71 72 73 74 75 75 75 75 75 75 75 74 74 74 73 73 74 72 70 69 68 67 68 67 66 67 66 65 65
23 20 22 20 18 18 17 17 18 24 20 16 18 21 17 18 30 37 44 47 49 51 53 53 54 54 55 56 57 57 58 59 59 60 60 61 61 62 62 63 63 64 65 67 67 67 68 69 69 70 70 70 71 71 72 72 72 72 70 70 69 69 70 70 70 70 70 71 71 72 73 73 74 74 75 75 75 75 75 74 74 73 73 72 73 71 69 68 67 67 67 67 67 67 67 67 65
24 22 21 21 20 20 29 24 23 21 14 15 16 19 16 14 24 34 39 43 47 49 51 52 53 53 54 55 56 56 57 57 58 59 60 60 61 61 61 62 62 63 64 65 66 67 67 68 69 69 69 70 71 71 71 71 71 71 70 70 70 69 69 69 69 69 70 70 70 71 72 73 74 74 74 75 75 75 74 74 73 73 73 73 73 71 69 67 67 67 67 67 67 66 66 66 68
20 18 19 22 21 21 21 21 25 15 12 21 16 17 17 15 25 33 38 41 45 47 48 50 51 51 52 54 55 56 56 56 57 58 58 59 60 60 61 61 62 62 63 64 65 66 67 68 68 68 69 69 70 70 71 71 71 71 71 70 70 69 69 69 69 69 69 69 70 70 71 72 73 74 74 74 74 74 74 74 74 73 73 72 72 71 69 68 67 67 67 67 67 67 67 68 66
21 19 20 17 19 16 16 17 12 12 12 18 15 17 22 17 24 29 34 38 41 45 46 48 49 50 51 51 53 55 55 55 56 57 58 58 58 59 59 60 61 62 63 64 65 65 66 67 68 68 68 69 70 70 70 70 70 70 70 70 70 70 69 69 69 69 70 70 70 70 71 71 72 73 73 74 74 74 74 74 73 73 72 72 72 71 69 68 67 67 67 67 67 67 66 67 66
20 19 19 18 16 12 11 16 17 14 18 19 16 20 13 22 26 25 26 36 39 41 44 45 47 49 50 50 52 53 54 55 55 56 57 58 58 58 59 59 60 61 62 63 64 65 66 67 67 68 68 69 69 70 70 70 70 70 71 70 70 70 70 69 69 69 69 70 70 70 70 70 71 72 73 73 74 74 74 74 73 73 72 72 71 71 69 68 67 67 67 66 66 67 67 67 66
19 18 16 19 18 15 12 14 9 10 16 17 19 14 17 20 22 26 22 29 38 40 41 43 45 46 48 49 50 51 53 54 55 55 56 57 57 58 58 59 60 61 61 61 63 65 66 66 67 68 68 68 69 69 70 70 70 70 70 70 70 70 70 69 69 69 70 70 70 70 70 71 71 72 72 73 74 74 74 74 73 73 72 71 71 70 69 68 68 67 68 67 67 67 67 67 66
17 16 17 18 16 22 14 16 14 14 12 10 21 15 24 16 33 39 30 24 35 41 41 42 42 43 44 46 47 49 51 52 53 54 55 56 57 57 57 58 59 60 61 61 62 64 65 66 67 67 67 68 68 69 70 70 70 70 70 70 70 70 70 70 70 70 70 70 70 70 70 71 71 72 73 73 73 74 74 73 73 73 72 71 70 70 69 68 67 67 67 67 66 67 66 66 66
18 15 15 17 17 14 18 29 22 23 16 12 26 23 22 26 23 26 30 31 30 38 40 40 41 41 43 43 45 47 49 51 52 53 54 56 56 57 57 57 57 58 59 61 62 63 65 66 66 67 67 68 68 69 69 70 70 70 70 70 70 70 70 70 69 69 69 70 70 70 70 70 71 72 72 73 73 74 73 73 73 72 72 71 70 69 69 68 67 67 67 67 66 66 67 66 66
13 15 16 15 17 17 18 15 17 15 12 14 22 15 16 21 16 38 30 31 29 35 39 40 41 41 41 41 43 45 47 49 51 53 54 55 56 56 56 56 56 57 59 60 62 63 64 65 66 66 67 67 68 68 69 69 70 70 70 70 70 70 70 70 69 69 70 70 70 70 70 70 71 72 72 73 73 73 73 73 73 72 72 71 70 69 69 68 67 67 67 67 66 67 67 67 66
15 15 15 15 16 16 20 17 12 13 12 12 12 23 20 21 20 32 30 31 30 33 37 39 40 41 41 42 42 44 45 47 49 51 52 53 55 55 56 56 56 57 59 60 61 62 63 64 65 65 66 66 67 67 68 69 70 70 70 70 70 70 70 70 70 70 70 70 69 70 70 70 70 72 72 73 73 72 72 72 72 72 71 71 70 69 69 68 67 67 67 66 67 67 66 66 66
18 12 13 19 14 20 16 15 20 17 12 14 10 18 10 23 17 28 28 31 32 31 34 37 38 40 41 42 42 43 45 45 47 48 50 52 53 54 55 55 55 56 57 58 59 60 61 63 65 65 65 67 67 68 69 69 69 70 70 70 70 70 70 70 70 70 70 70 70 70 70 70 70 71 72 72 72 72 72 72 71 71 71 70 70 69 69 68 67 67 66 66 66 67 66 66 66
15 14 11 11 19 16 14 19 11 14 16 11 10 7 16 26 25 24 25 29 32 32 33 36 37 39 39 41 42 43 45 45 45 47 48 50 52 53 54 55 55 56 57 58 58 59 60 62 63 64 65 65 66 66 67 69 69 70 70 70 70 70 70 70 70 70 70 70 70 70 70 70 71 71 71 71 72 72 72 72 71 71 71 70 70 69 69 68 67 67 67 66 67 66 66 66 66
15 15 14 11 10 13 11 12 13 14 15 15 10 7 20 22 31 27 24 27 29 32 34 35 37 38 40 41 41 43 44 46 46 45 46 48 51 52 53 55 56 56 56 57 58 59 59 61 62 63 64 64 65 66 67 68 69 69 69 70 70 70 70 70 70 70 70 70 70 70 71 71 70 71 71 71 71 71 72 71 71 71 71 70 70 70 69 68 67 67 66 66 66 66 65 65 66